星链-30590 (STARLINK-30590 )

导读 | 星芒AI

STARLINK-30590 是 SpaceX Starlink 项目中的一颗低轨通信卫星,属于第三代 Starlink 卫星(也称为 v1.5 或 Block V)。它于 2023 年发射,旨在为全球用户提供高速互联网服务。该卫星采用先进的推进系统和激光通信技术,以提高网络效率和减少延迟。作为 Starlink 卫星群的一部分,它运行在约 550 公里的轨道高度,支持广泛的宽带接入,特别是在偏远和网络基础设施薄弱的地区。

基本信息
目录编号:
58090
目录名称:
STARLINK-30590
国际标识:
2023-160R
轨道中心:
EARTH
卫星名称:
星链-30590
卫星全名:
星链-30590 (STARLINK-30590 )
卫星状态:
在轨 (已飞行794 天)
发射日期:
2023-10-18 UTC
国别 :
美国 (US)
星等 :
--
轨道信息
数据来源 国际轨道数据
星历时间: 2025-12-20T05:04:33+0800
12小时前
查看轨道信息
半长轴: 6937.215km
偏心率: 0.0001601
轨道倾角: 43.002°
近地点辐角 261.891°
升交点赤经 153.802°
平近点角 98.175°
近地点: 557.967km
远地点: 560.189km
周期: 95.838分钟
每日圈数: 15.025368
详细信息
固有亮度:
5
最大亮度:
0.3
卫星平台:
Starlink v2.0 mini
覆盖范围:
全球
运营商:
太空探索技术公司
运营商所在国:
美国
制造商(研发单位):
太空探索技术公司
制造商所在国:
美国
使用方式:
暂无
卫星简介
星链(Starlink)计划是由太空探索技术公司(SpaceX)提出的一个巨型低轨卫星互联网星座项目,计划在2019年至2024年间在太空搭建由约1.2万颗卫星组成的“星链”网络,其中1584颗将部署在地球上空550千米处的近地轨道,并从2020年开始工作。该卫星仍在工作。
2D轨道图
3D轨道图
轨道高度分析图
轨道倾角分析图
轨道综合分析图
查看轨道综合分析图